User: anonymous   Login
Location: Theydon Bois
(51.6750°N, 0.1050°E)
Time: 06:01:56
(UTC+01:00)
Language:

NOAA 11 - Orbit

View from above orbital plane
View from above orbital plane
View from above satellite
View from above satellite

Ground track
Ground track

The orbit data is extracted from the following two-line orbital elements,

1 19531U 88089A   18171.61196704 -.00000028 +00000-0 +66289-5 0  9991
2 19531 098.4972 218.9136 0012248 062.7271 297.5149 14.15227397534619
Epoch (UTC): 20 June 2018 14:41:13
Eccentricity: 0.0012248
inclination: 98.4972°
perigee height: 832 km
apogee height: 850 km
right ascension of ascending node: 218.9136°
argument of perigee: 62.7271°
revolutions per day: 14.15227397
mean anomaly at epoch: 297.5149°
orbit number at epoch: 53461

The dashed part of the orbit path shows where the satellite is in the earth's shadow,  

DLR